#timestamp,LO_Frequency,Hit,StdDev 
1502672415.8,286047002.6,N,1.0
1502672435.7,286047001.8,N,1.0
1502672455.5,286047002.1,N,1.0
1502672475.4,286047001.5,N,1.0
1502672495.2,286047004.3,Y,0.0
1502672515.0,286046999.7,P,1.0
1502672515.9,286046999.7,N,1.0
1502672535.8,286046999.8,N,0.9
1502672555.6,286046999.8,N,0.8
1502672575.5,286047002.1,N,1.0
1502672595.3,286047000.2,N,1.0
1502672615.1,286047000.2,N,0.9
1502672635.9,286047000.6,N,0.8
1502672655.7,286047002.7,Y,0.0
1502672675.6,286047002.3,P,0.9
1502672695.4,286047002.2,N,0.9
1502672715.2,286047001.9,N,0.8
1502672735.1,286047001.6,N,0.7
1502672736.0,286047001.6,N,0.6
1502672755.8,286047001.6,N,0.6
1502672775.7,286047002.7,Y,0.0
1502672795.5,286047001.2,P,0.2
1502672815.3,286047000.7,N,0.4
1502672835.2,286047000.7,N,0.4
1502672855.0,286047000.9,N,0.4
1502672855.9,286047000.9,N,0.3
1502672875.8,286046998.1,Y,0.0
1502672895.6,286046998.7,P,1.2
1502672915.4,286047001.0,N,1.1
1502672935.3,286046999.3,N,1.0
1502672955.1,286046998.3,N,1.1
1502672975.9,286046999.2,N,1.1
1502672995.7,286046998.7,N,1.0
1502673015.5,286046999.5,N,1.0
1502673035.4,286046998.7,N,0.9
1502673055.2,286046998.2,N,1.0
1502673075.0,286046996.5,Y,0.0
1502673076.0,286046996.5,P,1.4
1502673095.8,286047000.0,N,1.5
1502673115.6,286046998.2,N,1.3
1502673135.5,286047000.6,N,1.4
1502673155.3,286047001.2,N,1.6
1502673175.2,286047000.7,N,1.5
1502673195.9,286047000.2,N,1.5
1502673215.7,286046999.9,N,1.4
1502673235.6,286046999.7,N,1.3
1502673255.4,286047001.0,N,1.3
1502673275.3,286046999.9,N,1.3
1502673295.1,286047000.9,N,1.2
1502673296.0,286047000.9,N,1.2
1502673315.8,286047000.9,N,1.2
1502673335.7,286047000.9,N,1.2
1502673355.5,286047000.4,N,1.2
1502673375.4,286047001.0,N,1.1
1502673395.2,286047000.6,N,1.1
1502673415.0,286047000.6,N,1.1
1502673415.9,286047000.6,N,1.1
1502673435.8,286047000.0,N,1.0
1502673455.6,286047000.9,N,1.0
1502673475.4,286046999.9,N,1.0
1502673495.3,286047002.3,N,1.1
1502673515.1,286047000.7,N,1.1
1502673535.9,286047000.6,N,1.0
1502673555.7,286047000.6,N,1.0
1502673575.5,286047001.2,N,1.0
1502673595.4,286047000.7,N,1.0
1502673615.2,286046999.9,N,1.0
1502673635.1,286047000.5,N,0.7
1502673636.0,286047000.5,N,0.7
1502673655.8,286046999.9,N,0.5
1502673675.6,286047000.8,N,0.5
1502673695.5,286047000.3,N,0.5
1502673715.3,286047000.5,N,0.5
1502673735.2,286047002.7,Y,0.0
1502673755.9,286047002.5,P,1.0
1502673775.7,286047002.4,N,0.9
1502673795.6,286047000.8,N,0.9
1502673815.4,286047000.8,N,0.9
1502673835.3,286047000.4,N,0.9
1502673855.1,286047000.6,N,0.8
1502673856.0,286047000.6,N,0.8
1502673875.8,286046998.1,N,1.2
1502673895.7,286047000.8,N,1.1
1502673915.5,286047000.7,N,1.1
1502673935.4,286047000.9,N,1.0
1502673955.2,286047000.4,N,1.0
1502673975.0,286047002.4,N,1.1
1502673975.9,286047002.4,N,1.1
1502673995.8,286047002.6,N,1.1
1502674015.6,286047000.9,N,1.1
1502674035.5,286046998.2,N,1.3
1502674055.3,286047000.9,N,1.2
1502674075.1,286047001.1,N,1.2
1502674095.9,286047001.1,N,1.2
1502674115.7,286047001.2,N,1.1
1502674135.6,286047000.4,N,1.1
1502674155.4,286047000.3,N,1.1
1502674175.2,286047000.0,N,1.1
1502674195.1,286047002.7,N,1.1
1502674196.0,286047002.7,N,1.2
1502674215.8,286047000.3,N,1.1
1502674235.7,286047000.0,N,1.1
1502674255.5,286047000.3,N,1.1
1502674275.3,286047002.7,N,1.2
1502674295.2,286046999.7,N,1.2
1502674315.0,286047002.6,N,1.2
1502674315.9,286047002.6,N,1.2
1502674335.8,286047001.9,N,1.2
1502674355.6,286047002.1,N,1.2
1502674375.5,286047001.7,N,1.2
1502674395.3,286047002.2,N,1.2
1502674415.1,286047002.2,N,1.1
1502674435.9,286047001.6,N,1.1
1502674455.7,286047001.6,N,1.1
1502674475.6,286047001.5,N,1.1
1502674495.4,286047001.9,N,1.1
1502674515.2,286047001.4,N,1.1
1502674535.1,286047002.2,N,1.1
1502674536.0,286047002.2,N,1.1
1502674555.8,286047001.8,N,1.1
1502674575.7,286047002.8,N,0.9
1502674595.5,286046999.8,N,1.0
1502674615.3,286047000.0,N,1.0
1502674635.2,286046999.9,N,1.0
1502674655.0,286047000.6,N,1.0
1502674655.9,286047000.6,N,1.0
1502674675.8,286047000.7,N,1.0
1502674695.6,286046998.2,N,1.2
1502674715.4,286046998.2,N,1.3
1502674735.3,286047001.2,N,1.2
1502674755.1,286046998.5,N,1.3
1502674775.9,286047001.1,N,1.3
1502674795.7,286046998.6,N,1.4
1502674815.5,286046998.6,N,1.4
1502674835.4,286046999.3,N,1.4
1502674855.2,286046998.8,N,1.4
1502674875.1,286046996.6,N,1.6
1502674876.0,286046996.6,N,1.7
1502674895.8,286046999.4,N,1.7
1502674915.6,286046996.5,N,1.8
1502674935.5,286046999.3,N,1.8
1502674955.3,286046996.6,N,1.8
1502674975.2,286046996.8,N,1.9
1502674995.9,286046995.0,N,2.0
1502675015.7,286046997.6,N,2.0
1502675035.6,286046995.5,N,2.1
1502675055.4,286046996.1,N,2.1
1502675075.3,286046995.0,N,2.1
1502675095.1,286046996.2,N,2.1
1502675115.8,286046995.9,N,2.0
1502675135.7,286046994.0,N,2.0
1502675155.5,286046994.5,N,2.1
1502675175.4,286046991.7,Y,0.0
1502675195.2,286046995.2,P,1.3
1502675215.0,286046996.1,N,1.1
1502675215.9,286046996.1,P,1.0
1502675235.8,286046995.1,Y,0.0
1502675255.6,286047000.5,P,2.1
1502675275.5,286046998.4,N,1.7
1502675295.3,286046998.6,N,1.5
1502675315.1,286047000.9,N,1.6
1502675335.9,286047000.2,N,1.6
1502675355.7,286047000.3,N,1.5
1502675375.6,286047000.9,N,1.5
1502675395.4,286047000.4,N,1.4
1502675415.2,286047001.2,N,1.5
1502675435.1,286046999.9,N,1.4
1502675436.0,286046999.9,N,1.3
1502675455.8,286047000.3,N,1.3
1502675475.6,286047000.6,N,1.3
1502675495.5,286046998.3,N,1.3
1502675515.3,286046998.4,N,1.3
1502675535.2,286046998.4,N,1.3
1502675555.0,286046999.0,N,1.2
1502675555.9,286046999.0,N,1.2
1502675575.8,286046999.1,N,1.2
1502675595.6,286046999.1,N,1.2
1502675615.4,286046999.5,N,1.1
1502675635.3,286046996.7,N,1.3
1502675655.1,286046997.0,N,1.3
1502675675.8,286046996.8,N,1.4
1502675695.7,286046997.3,N,1.4
1502675715.5,286046996.6,N,1.5
1502675735.4,286046997.7,N,1.5
1502675755.2,286046997.7,N,1.4
1502675775.0,286046997.2,N,1.5
1502675775.9,286046997.2,N,1.4
1502675795.8,286046997.4,N,1.4
1502675815.6,286046997.4,N,1.4
1502675835.5,286046997.7,N,1.4
1502675855.3,286046996.7,N,1.4
1502675875.1,286046996.7,N,1.4
1502675895.9,286046999.5,N,1.4
1502675915.7,286046999.5,N,1.3
1502675935.6,286046999.5,N,1.3
1502675955.4,286046996.9,N,1.2
1502675975.2,286046997.3,N,1.2
1502675995.1,286046996.6,N,1.2
1502675996.0,286046996.6,N,1.1
